User: anonymous   Login
Location: Bangkok
(13.7500°N, 100.5170°E)
Time: 01:46:49
(UTC+07:00)
Language:

Cosmos 1898 Rocket - Orbit

View from above orbital plane
View from above orbital plane
View from above satellite
View from above satellite

Ground track
Ground track

The orbit data is extracted from the following two-line orbital elements,

1 18586U 87098B   15061.90991734  .00000309  00000-0  11400-3 0  9996
2 18586 074.0069 036.8953 0022321 289.9177 100.5837 14.36572026427129
Epoch (UTC): 02 March 2015 21:50:16
Eccentricity: 0.0022321
inclination: 74.0069°
perigee height: 754 km
apogee height: 786 km
right ascension of ascending node: 36.8953°
argument of perigee: 289.9177°
revolutions per day: 14.36572026
mean anomaly at epoch: 100.5837°
orbit number at epoch: 42712

The dashed part of the orbit path shows where the satellite is in the earth's shadow,  

DLR